This is the latest recevied weather packets stored in our database for station/object OE6JUE. If no packets are shown the sender has not sent any weather packets the latest 10 day(s).
| Time | Temp. | Humidity | Pressure | Rain* | Wind** | Luminosity | Snow |
|---|---|---|---|---|---|---|---|
| 1788522535 | 30.56° C | 36% | 1020.3 hPa | 0 mm | - | - | - |
| 1788522235 | 30.56° C | 36% | 1020.3 hPa | 0 mm | - | - | - |
| 1788521935 | 31.11° C | 36% | 1020.4 hPa | 0 mm | - | - | - |
| 1788521635 | 30.56° C | 38% | 1020.5 hPa | 0 mm | - | - | - |
| 1788521335 | 30.56° C | 38% | 1020.6 hPa | 0 mm | - | - | - |
| 1788521035 | 30° C | 36% | 1020.7 hPa | 0 mm | - | - | - |
| 1788520736 | 30.56° C | 38% | 1020.8 hPa | 0 mm | - | - | - |
| 1788520435 | 30.56° C | 34% | 1020.7 hPa | 0 mm | - | - | - |
| 1788520135 | 30.56° C | 34% | 1020.8 hPa | 0 mm | - | - | - |
| 1788519835 | 30.56° C | 35% | 1020.9 hPa | 0 mm | - | - | - |
| 1788519535 | 30° C | 35% | 1020.9 hPa | 0 mm | - | - | - |
| 1788519235 | 30° C | 37% | 1021 hPa | 0 mm | - | - | - |
| 1788518936 | 30° C | 35% | 1021.1 hPa | 0 mm | - | - | - |
| 1788518636 | 29.44° C | 35% | 1021.1 hPa | 0 mm | - | - | - |
| 1788518335 | 30° C | 33% | 1021.2 hPa | 0 mm | - | - | - |
| 1788518035 | 29.44° C | 38% | 1021.1 hPa | 0 mm | - | - | - |
| 1788517735 | 29.44° C | 37% | 1021.2 hPa | 0 mm | - | - | - |
| 1788517435 | 29.44° C | 36% | 1021.3 hPa | 0 mm | - | - | - |
| 1788517135 | 29.44° C | 38% | 1021.3 hPa | 0 mm | - | - | - |
| 1788516835 | 29.44° C | 40% | 1021.3 hPa | 0 mm | - | - | - |
| 1788516535 | 29.44° C | 40% | 1021.4 hPa | 0 mm | - | - | - |
| 1788516235 | 28.89° C | 40% | 1021.6 hPa | 0 mm | - | - | - |
| 1788515936 | 28.89° C | 40% | 1021.6 hPa | 0 mm | - | - | - |
| 1788515635 | 28.89° C | 40% | 1021.6 hPa | 0 mm | - | - | - |
| 1788515336 | 28.89° C | 40% | 1021.7 hPa | 0 mm | - | - | - |
* Rain latest hour (hover to see other rain measurements)
** Current wind speed in m/s (hover to see current wind gust speed)